Location: Blankensee
(53.5126°N, 14.3055°E)
Time: 18:56:29
(UTC+00:00)

Cosmos 2297 Rocket - Pass Details

Date: 08 August 2020
Orbit: 838 x 845 km, 71.0° (Epoch: 20 September)

Event Time Altitude Azimuth Distance (km) Brightness Sun altitude
Exits shadow 00:31:24 28° 174° (S) 1,522 3.0 -18.2°
Maximum altitude 00:34:07 52° 113° (ESE) 1,040 2.6 -18.0°
Drops below altitude 10° 00:39:35 10° 39° (NE) 2,469 5.8 -17.7°
Sets 00:42:05 0° 34° (NE) 3,409 7.0 -17.6°
